Location: Wald
(31.7579°N, 86.6655°W)
Time: 21:19:09
(UTC+00:00)

Cosmos 2333 Rocket - Pass Details

Date: 14 July 2020
Orbit: 837 x 864 km, 70.8° (Epoch: 13 August)

Event Time Altitude Azimuth Distance (km) Brightness Sun altitude
Rises 01:45:05 0° 213° (SSW) 3,385 5.3 -10.3°
Reaches altitude 10° 01:47:35 10° 219° (SW) 2,457 4.7 -10.7°
Maximum altitude 01:53:02 49° 293° (WNW) 1,084 3.3 -11.7°
Drops below altitude 10° 01:58:34 10° 8° (N) 2,488 5.0 -12.6°
Sets 02:01:07 0° 14° (NNE) 3,431 5.7 -13.1°
